User: anonymous   Login
Location: Unspecified
(0.0000°N, 0.0000°E)
Time: 13:43:18
(UTC+00:00)
Language:

USA 176 - Orbit

View from above orbital plane
View from above orbital plane
View from above satellite
View from above satellite

Ground track
Ground track

The orbit data is extracted from the following two-line orbital elements,

1 28158U 04004A   17033.57863953 0.00000000  00000-0  00000-0 0    05
2 28158   7.5401  46.8540 0005837 328.2685  31.6987  1.00270000    01
Epoch (UTC): 02 February 2017 13:53:14
Eccentricity: 0.0005837
inclination: 7.5401°
perigee height: 35762 km
apogee height: 35811 km
right ascension of ascending node: 46.8540°
argument of perigee: 328.2685°
revolutions per day: 1.00270000
mean anomaly at epoch: 31.6987°
orbit number at epoch: 0

The dashed part of the orbit path shows where the satellite is in the earth's shadow,  

DLR